| time (UTC) | temp C | wind direction | speed KPH | gust KPH | rain 1hr cm | rain 24hr cm | rain mn cm | humidity % | barometer mb |
| 20260510153045 | 27 | 176 | 4.8 | 11.3 | 0.00 | 0.00 | 0.00 | 43 | 1013.6 |
| 20260510151536 | 26 | 85 | 1.6 | 9.7 | 0.00 | 0.00 | 0.00 | 41 | 1013.9 |
| 20260510150035 | 26 | 161 | 1.6 | 8.0 | 0.00 | 0.00 | 0.00 | 44 | 1013.9 |
| 20260510144543 | 25 | 177 | 1.6 | 8.0 | 0.00 | 0.00 | 0.00 | 44 | 1013.8 |
| 20260510143034 | 25 | 157 | 1.6 | 6.4 | 0.00 | 0.00 | 0.00 | 46 | 1013.8 |
| 20260510141531 | 24 | 300 | 0.0 | 4.8 | 0.00 | 0.00 | 0.00 | 42 | 1013.7 |
| 20260510140036 | 24 | 193 | 0.0 | 4.8 | 0.00 | 0.00 | 0.00 | 51 | 1013.6 |
| 20260510134543 | 23 | 0 | 0.0 | 6.4 | 0.00 | 0.00 | 0.00 | 54 | 1013.6 |
| 20260510133034 | 23 | 207 | 1.6 | 6.4 | 0.00 | 0.00 | 0.00 | 54 | 1013.7 |
| 20260510131531 | 22 | 207 | 1.6 | 4.8 | 0.00 | 0.00 | 0.00 | 60 | 1013.5 |
| 20260510130034 | 21 | 0 | 0.0 | 0.0 | 0.00 | 0.00 | 0.00 | 65 | 1013.7 |
| 20260510124538 | 19 | 0 | 0.0 | 0.0 | 0.00 | 0.00 | 0.00 | 72 | 1013.4 |
| 20260510123035 | 18 | 0 | 0.0 | 0.0 | 0.00 | 0.00 | 0.00 | 75 | 1013.3 |
| 20260510121531 | 17 | 0 | 0.0 | 0.0 | 0.00 | 0.00 | 0.00 | 81 | 1013.2 |
| 20260510120036 | 16 | 0 | 0.0 | 0.0 | 0.00 | 0.00 | 0.00 | 84 | 1013.2 |
| 20260510114535 | 14 | 0 | 0.0 | 0.0 | 0.00 | 0.00 | 0.00 | 94 | 1013.0 |
| 20260510113035 | 12 | 0 | 0.0 | 0.0 | 0.00 | 0.00 | 0.00 | 96 | 1012.9 |
| 20260510111538 | 11 | 0 | 0.0 | 0.0 | 0.00 | 0.00 | 0.00 | 96 | 1012.5 |
| 20260510110038 | 10 | 0 | 0.0 | 0.0 | 0.00 | 0.00 | 0.00 | 96 | 1012.4 |
| 20260510104534 | 10 | 0 | 0.0 | 0.0 | 0.00 | 0.00 | 0.00 | 96 | 1012.3 |
| 20260510103043 | 10 | 0 | 0.0 | 0.0 | 0.00 | 0.00 | 0.00 | 95 | 1012.1 |
| 20260510101536 | 10 | 0 | 0.0 | 0.0 | 0.00 | 0.00 | 0.00 | 95 | 1011.9 |
| 20260510100047 | 11 | 0 | 0.0 | 0.0 | 0.00 | 0.00 | 0.00 | 95 | 1011.6 |
| 20260510094543 | 11 | 0 | 0.0 | 0.0 | 0.00 | 0.00 | 0.00 | 95 | 1011.5 |
| 20260510093034 | 11 | 0 | 0.0 | 0.0 | 0.00 | 0.00 | 0.00 | 94 | 1011.4 |
| 20260510091533 | 11 | 0 | 0.0 | 0.0 | 0.00 | 0.00 | 0.00 | 94 | 1011.3 |
| 20260510090035 | 12 | 0 | 0.0 | 0.0 | 0.00 | 0.00 | 0.00 | 94 | 1011.1 |
| 20260510084546 | 12 | 0 | 0.0 | 0.0 | 0.00 | 0.00 | 0.00 | 94 | 1011.1 |
| 20260510083038 | 12 | 0 | 0.0 | 0.0 | 0.00 | 0.00 | 0.00 | 93 | 1011.0 |
| 20260510081534 | 13 | 0 | 0.0 | 0.0 | 0.00 | 0.00 | 0.00 | 93 | 1010.9 |
| 20260510080032 | 13 | 0 | 0.0 | 0.0 | 0.00 | 0.00 | 0.00 | 93 | 1010.7 |
| 20260510074536 | 13 | 0 | 0.0 | 0.0 | 0.00 | 0.00 | 0.00 | 93 | 1010.7 |
| 20260510073043 | 13 | 0 | 0.0 | 0.0 | 0.00 | 0.00 | 0.00 | 93 | 1010.7 |
| 20260510071543 | 13 | 0 | 0.0 | 0.0 | 0.00 | 0.00 | 0.00 | 92 | 1010.7 |
| 20260510070035 | 13 | 0 | 0.0 | 0.0 | 0.00 | 0.00 | 0.00 | 91 | 1010.7 |
| 20260510064531 | 13 | 0 | 0.0 | 0.0 | 0.00 | 0.00 | 0.00 | 89 | 1010.6 |
| 20260510063041 | 14 | 0 | 0.0 | 0.0 | 0.00 | 0.00 | 0.00 | 89 | 1010.4 |
| 20260510061537 | 15 | 0 | 0.0 | 0.0 | 0.00 | 0.00 | 0.00 | 88 | 1010.6 |
| 20260510060038 | 15 | 0 | 0.0 | 0.0 | 0.00 | 0.00 | 0.00 | 88 | 1010.6 |
| 20260510054534 | 15 | 0 | 0.0 | 0.0 | 0.00 | 0.00 | 0.00 | 87 | 1010.3 |
| 20260510053042 | 15 | 0 | 0.0 | 0.0 | 0.00 | 0.00 | 0.00 | 85 | 1010.6 |
| 20260510051552 | 15 | 0 | 0.0 | 0.0 | 0.00 | 0.00 | 0.00 | 84 | 1010.3 |
| 20260510050035 | 16 | 0 | 0.0 | 0.0 | 0.00 | 0.00 | 0.00 | 83 | 1010.5 |
| 20260510044537 | 16 | 0 | 0.0 | 1.6 | 0.00 | 0.00 | 0.00 | 82 | 1010.3 |
| 20260510043045 | 16 | 0 | 0.0 | 1.6 | 0.00 | 0.00 | 0.00 | 82 | 1010.3 |
| 20260510041535 | 16 | 0 | 0.0 | 1.6 | 0.00 | 0.00 | 0.00 | 81 | 1010.3 |
| 20260510040035 | 16 | 0 | 0.0 | 1.6 | 0.00 | 0.00 | 0.00 | 81 | 1010.2 |
| 20260510034534 | 16 | 0 | 0.0 | 1.6 | 0.00 | 0.00 | 0.00 | 79 | 1010.2 |
| 20260510033033 | 16 | 0 | 0.0 | 8.0 | 0.00 | 0.00 | 0.00 | 79 | 1010.2 |
| 20260510031536 | 15 | 195 | 1.6 | 4.8 | 0.00 | 0.00 | 0.00 | 80 | 1010.1 |
| 20260510030034 | 15 | 0 | 0.0 | 0.0 | 0.00 | 0.00 | 0.00 | 81 | 1010.0 |
| 20260510024547 | 15 | 0 | 0.0 | 0.0 | 0.00 | 0.00 | 0.00 | 81 | 1009.9 |
| 20260510023031 | 15 | 0 | 0.0 | 0.0 | 0.00 | 0.00 | 0.00 | 81 | 1009.7 |
| 20260510021536 | 15 | 0 | 0.0 | 1.6 | 0.00 | 0.00 | 0.00 | 80 | 1009.6 |
| 20260510020035 | 15 | 0 | 0.0 | 0.0 | 0.00 | 0.00 | 0.00 | 79 | 1009.5 |
| 20260510014534 | 15 | 0 | 0.0 | 0.0 | 0.00 | 0.00 | 0.00 | 78 | 1009.5 |
| 20260510013035 | 15 | 0 | 0.0 | 0.0 | 0.00 | 0.00 | 0.00 | 78 | 1009.2 |
| 20260510011538 | 16 | 0 | 0.0 | 0.0 | 0.00 | 0.00 | 0.00 | 75 | 1009.0 |
| 20260510010038 | 16 | 0 | 0.0 | 0.0 | 0.00 | 0.00 | 0.00 | 73 | 1008.9 |
| 20260510004537 | 17 | 0 | 0.0 | 0.0 | 0.00 | 0.00 | 0.00 | 70 | 1008.8 |
| 20260510003036 | 18 | 0 | 0.0 | 0.0 | 0.00 | 0.00 | 0.00 | 65 | 1008.6 |
| 20260510001540 | 19 | 0 | 0.0 | 0.0 | 0.00 | 0.00 | 0.00 | 63 | 1008.4 |
| 20260510000044 | 20 | 0 | 0.0 | 1.6 | 0.00 | 0.00 | 0.00 | 60 | 1008.2 |
| 20260509234538 | 21 | 213 | 0.0 | 3.2 | 0.00 | 0.00 | 0.00 | 58 | 1008.2 |
| 20260509233036 | 21 | 192 | 0.0 | 4.8 | 0.00 | 0.00 | 0.00 | 54 | 1008.2 |
| 20260509231536 | 22 | 157 | 0.0 | 11.3 | 0.00 | 0.00 | 0.00 | 53 | 1008.1 |
| 20260509230034 | 22 | 198 | 1.6 | 3.2 | 0.00 | 0.00 | 0.00 | 52 | 1008.1 |
| 20260509224534 | 23 | 206 | 1.6 | 4.8 | 0.00 | 0.00 | 0.00 | 49 | 1008.0 |
| 20260509223034 | 23 | 208 | 3.2 | 9.7 | 0.00 | 0.00 | 0.00 | 49 | 1008.1 |
| 20260509221600 | 23 | 217 | 3.2 | 6.4 | 0.00 | 0.00 | 0.00 | 50 | 1008.1 |
| 20260509220036 | 23 | 234 | 0.0 | 8.0 | 0.00 | 0.00 | 0.00 | 49 | 1008.1 |
| 20260509214536 | 23 | 197 | 0.0 | 4.8 | 0.00 | 0.00 | 0.00 | 47 | 1008.0 |
| 20260509213035 | 23 | 0 | 1.6 | 6.4 | 0.00 | 0.00 | 0.00 | 47 | 1008.0 |
| 20260509211534 | 24 | 251 | 1.6 | 8.0 | 0.00 | 0.00 | 0.00 | 46 | 1007.9 |
| 20260509210034 | 24 | 221 | 1.6 | 14.5 | 0.00 | 0.00 | 0.00 | 48 | 1007.7 |
| 20260509204535 | 25 | 316 | 1.6 | 9.7 | 0.00 | 0.00 | 0.00 | 46 | 1007.6 |
| 20260509203041 | 25 | 264 | 1.6 | 8.0 | 0.00 | 0.00 | 0.00 | 47 | 1007.4 |
| 20260509201535 | 24 | 243 | 3.2 | 20.9 | 0.00 | 0.00 | 0.00 | 48 | 1007.5 |
| 20260509200036 | 24 | 360 | 3.2 | 11.3 | 0.00 | 0.00 | 0.00 | 47 | 1007.6 |
| 20260509194532 | 23 | 0 | 3.2 | 11.3 | 0.00 | 0.00 | 0.00 | 48 | 1008.0 |
| 20260509193044 | 23 | 282 | 0.0 | 4.8 | 0.00 | 0.00 | 0.00 | 53 | 1008.1 |
| 20260509191548 | 23 | 176 | 1.6 | 11.3 | 0.00 | 0.00 | 0.00 | 51 | 1008.3 |
| 20260509190044 | 23 | 0 | 1.6 | 14.5 | 0.00 | 0.00 | 0.00 | 51 | 1008.6 |
| 20260509184542 | 23 | 259 | 4.8 | 17.7 | 0.00 | 0.00 | 0.00 | 52 | 1008.8 |
| 20260509183040 | 24 | 178 | 6.4 | 20.9 | 0.00 | 0.00 | 0.00 | 48 | 1008.6 |
| 20260509181535 | 23 | 259 | 6.4 | 19.3 | 0.00 | 0.00 | 0.00 | 52 | 1008.8 |
| 20260509180031 | 23 | 330 | 3.2 | 16.1 | 0.00 | 0.00 | 0.00 | 52 | 1009.2 |
| 20260509174535 | 23 | 227 | 6.4 | 20.9 | 0.00 | 0.00 | 0.00 | 53 | 1009.4 |
| 20260509173050 | 23 | 231 | 6.4 | 17.7 | 0.00 | 0.00 | 0.00 | 56 | 1009.5 |
| 20260509171541 | 23 | 209 | 8.0 | 27.4 | 0.00 | 0.00 | 0.00 | 52 | 1009.7 |
| 20260509170043 | 22 | 218 | 8.0 | 22.5 | 0.00 | 0.00 | 0.00 | 54 | 1009.9 |
| 20260509164547 | 22 | 220 | 3.2 | 12.9 | 0.00 | 0.00 | 0.00 | 55 | 1010.2 |
| 20260509163047 | 21 | 132 | 4.8 | 20.9 | 0.00 | 0.00 | 0.00 | 54 | 1010.3 |
| 20260509161535 | 21 | 223 | 3.2 | 17.7 | 0.00 | 0.00 | 0.00 | 55 | 1010.3 |
| 20260509160032 | 22 | 226 | 8.0 | 22.5 | 0.00 | 0.00 | 0.00 | 53 | 1010.3 |
| 20260509154542 | 22 | 295 | 3.2 | 20.9 | 0.00 | 0.00 | 0.00 | 55 | 1010.5 |